Location: Nianha
(10.8000°N, 4.6333°W)
Time: 14:12:37
(UTC+00:00)

Cosmos 2173 Rocket - Pass Details

Date: 14 November 2019
Orbit: 946 x 1000 km, 83.0° (Epoch: 25 January)

Event Time Altitude Azimuth Distance (km) Brightness Sun altitude
Rises 05:33:48 0° 191° (S) 3,710 7.1 -10.2°
Reaches altitude 10° 05:36:22 10° 194° (SSW) 2,758 6.4 -9.6°
Maximum altitude 05:42:36 62° 274° (W) 1,103 4.1 -8.1°
Drops below altitude 10° 05:48:48 10° 354° (N) 2,729 6.1 -6.6°
Sets 05:51:19 0° 358° (N) 3,669 6.8 -6.1°
